Regional Weather Roundup
Issued by NWS

Home | Current Version | Previous Version | Text Only | Print | Product List | Glossary Off
Versions: 1 2 3 4 5 6 7 8 9 10 11 12 13 14 15 16 17 18 19 20 21 22 23 24 25 26 27 28 29 30 31 32 33 34 35 36 37 38 39 40 41 42 43 44 45 46 47 48 49 50

000
ASUS43 KLOT 162003
RWRIL

ILLINOIS REGIONAL WEATHER ROUNDUP
NATIONAL WEATHER SERVICE CHICAGO/ROMEOVILLE IL
200 PM CST MON JAN 16 2017

NOTE: "FAIR" INDICATES FEW OR NO CLOUDS BELOW 12,000 FEET WITH NO
SIGNIFICANT WEATHER AND/OR OBSTRUCTIONS TO VISIBILITY.

* THESE STATIONS ARE NOT UNDER NWS QUALITY CONTROL. THEY ALSO MAY NOT
  REPORT WEATHER SUCH AS PRECIPITATION OR FOG.

ILZ001-002-007-009-015-016-024-162100-
NORTHWEST ILLINOIS

CITY           SKY/WX    TMP DP  RH WIND       PRES   REMARKS
MOLINE         LGT RAIN  36  34  92 E10       29.99F FOG     WCI  28
STERLING*      LGT SNOW  34  33  96 E9        30.04F VSB 1   WCI  27
SAVANNA*       RAIN      34  33  97 E6        30.03F WCI  29
$$

ILZ003-004-008-010-011-017-018-162100-
NORTH CENTRAL ILLINOIS

CITY           SKY/WX    TMP DP  RH WIND       PRES   REMARKS
ROCKFORD       LGT RAIN  35  32  88 SE6       30.07F FOG     WCI  30
FREEPORT*      LGT RAIN  32  32  99 E8        30.07F WCI  25
ROCHELLE*      RAIN      33  33  99 E9        30.05F WCI  26
DE KALB*       LGT RAIN  34  34  99 E9        30.06F WCI  27
$$

ILZ005-006-012>014-019>023-162100-
NORTHEAST ILLINOIS

CITY           SKY/WX    TMP DP  RH WIND       PRES   REMARKS
CHICAGO-OHARE  LGT RAIN  35  34  96 E8        30.08F VSB 1   WCI  29
CHICAGO-MIDWAY RAIN      36  35  96 E8        30.08F VSB 1   WCI  30
AURORA         LGT RAIN  36  34  92 E8        30.07F FOG     WCI  30
LANSING*       LGT RAIN  35  35 100 E7        30.10F VSB 1   WCI  29
JOLIET*        RAIN      37  37  99 E6        30.08F WCI  32
WAUKEGAN       LGT RAIN  35  34  96 E6        30.11F VSB 1/2 WCI  30
DUPAGE AIRPORT RAIN      35  33  92 E7        30.07F FOG     WCI  29
KANKAKEE*      MOSUNNY   39  21  48 S7        30.29R WCI  34
WHEELING       LGT RAIN  34  33  96 E5        30.11F FOG     WCI  30
MORRIS*        LGT RAIN  35  34  96 E8        30.06F WCI  29
ROMEOVILLE*    LGT RAIN  35  35 100 E7        30.07F WCI  29
NORTHERLY ISL    N/A     33  32  96 E5          N/A  WCI  29
$$

LMZ740>746-162100-
SOUTHERN LAKE MICHIGAN

STATION/POSITION SKY/WX   TEMP    WIND        PRES    VSBY  WAVE
                          AIR SEA DIR/SP/G                  HT/PER
                          (F)     (DEG/KT/KT) (MB)    (MI)  (FT/S)
HARRISON CRIB              34     110/ 11/ 11   N/A
BURNHAM HARBOR             33      80/  6       N/A
CALUMET HARBOR             33      80/  2/  4 1019.3F
BURNS HARBOR               36     140/  4/  7 1020.7F
MICHIGAN CITY              36      90/  5/  7   N/A
$$

ILZ025>027-034>036-040-047-049-050-058-095>099-162100-
WEST-CENTRAL ILLINOIS

CITY           SKY/WX    TMP DP  RH WIND       PRES   REMARKS
QUINCY         FOG       41  41 100 SE10      29.92F VSB 1/2
GALESBURG*     DRZL/FOG  36  36 100 E10       29.98F VSB 3/4 WCI  28
MACOMB*        CLOUDY    37  37 100 E9        29.98F FOG     WCI  30
JACKSONVILLE*  FOG       41  41  99 SE7       29.97F VSB 1/2
$$

ILZ028>032-037-038-041>044-048-051>054-059>061-162100-
CENTRAL ILLINOIS

CITY           SKY/WX    TMP DP  RH WIND       PRES   REMARKS
BLOOMINGTON    LGT RAIN  39  38  96 SE7       30.03F VSB 1/4 WCI  34
DECATUR        LGT RAIN  46  46 100 SE10      30.02F VSB 3/4
PEORIA         LGT RAIN  39  39 100 E6        30.01F VSB 1/8 WCI  35
LACON*         RAIN      35  35 100 CALM      30.03F VSB 1/2
LINCOLN*       FOG       41  41 100 SE7       30.00F VSB 1/4
SPRINGFIELD    LGT RAIN  45  44  97 SE9       29.99F FOG
TAYLORVILLE    CLOUDY    46  46 100 SE10      30.00F FOG
$$

ILZ033-039-045-046-055>057-062-063-162100-
EAST-CENTRAL ILLINOIS

CITY           SKY/WX    TMP DP  RH WIND       PRES   REMARKS
CHAMPAIGN      FOG       42  41  96 E9        30.05F VSB<1/4
MATTOON        LGT RAIN  47  47 100 SE10      30.04F VSB 1
PARIS*         CLOUDY    47  47 100 SE8       30.08F FOG
$$

ILZ079-100>102-162100-
SOUTHWEST ILLINOIS

CITY           SKY/WX    TMP DP  RH WIND       PRES   REMARKS
ALTON          RAIN      48  48 100 SE9       29.99F FOG
BELLEVILLE     CLOUDY    52  52 100 E7        29.99F
CAHOKIA*       CLOUDY    52  48  86 S10       29.98F
SPARTA*        CLOUDY    51  50  98 SE8       30.01F FOG
$$

ILZ064>066-069>071-074>076-080>082-084>086-088>090-092>094-162100-
SOUTH-CENTRAL ILLINOIS

CITY           SKY/WX    TMP DP  RH WIND       PRES   REMARKS
CARBONDALE     LGT RAIN  55  55 100 S5        30.02F
CAIRO*         CLOUDY    61  58  89 SE10      30.02F
EFFINGHAM*     LGT RAIN  49  49 100 E9        30.05F
MARION         CLOUDY    55  55 100 E7        30.04F
MT. VERNON     CLOUDY    51  50  96 SE5       30.04F
CENTRALIA*     CLOUDY    53  52  97 SE9       30.02F
SALEM*         LGT RAIN  52  50  92 SE7       30.03F
$$

ILZ067-068-072-073-078-083-087-091-162100-
SOUTHEAST ILLINOIS

CITY           SKY/WX    TMP DP  RH WIND       PRES   REMARKS
LAWRENCEVILLE  RAIN      52  52 100 S3        30.09F FOG
FLORA*         DRIZZLE   51  50  97 SE7       30.05F
FAIRFIELD*     LGT RAIN  51  51 100 CALM      30.04F
HARRISBURG*    DRIZZLE   54  53  98 SE6       30.04F
ROBINSON*      LGT RAIN  50  49  97 SE8       30.09F
CARMI*         LGT RAIN  52  52 100 SE9       30.05F
$$

ABBREVIATIONS USED IN REMARKS
   TC - TEMPERATURE IN CELSIUS
  WCI - WIND CHILL INDEX
   HX - HEAT INDEX
  VSB - VISIBILITY
$$





USA.gov is the U.S. government's official web portal to all federal, state and local government web resources and services.